Total_Precipitation_Accumulation
0.02 0.04 0.09 0.11 0.13 0.15 0.19 0.23 0.29 0.25 0.24 0.31 0.41 0.61 0.86 0.99 1.18 1.35 1.34 1.35 1.47 1.57 1.82 2.04 2.20 2.40 2.69 2.93 3.10 3.35 3.60 3.96 4.24 4.63 4.96 5.18 5.39 5.59 5.68 5.62 5.55 5.52 5.50 5.63
0.05 0.06 0.07 0.09 0.09 0.10 0.13 0.19 0.26 0.28 0.28 0.30 0.45 0.64 0.88 0.99 1.13 1.32 1.40 1.48 1.51 1.62 1.81 2.17 2.53 2.94 3.16 3.32 3.41 3.64 4.00 4.31 4.49 4.89 5.43 5.90 6.10 6.22 6.22 6.21 6.32 6.34 6.32 6.47
0.07 0.07 0.07 0.06 0.07 0.07 0.10 0.15 0.18 0.27 0.34 0.40 0.57 0.96 1.18 1.16 1.30 1.44 1.46 1.62 1.63 1.69 2.00 2.30 2.77 3.13 3.20 3.30 3.43 3.61 4.14 4.62 5.10 5.55 6.12 6.60 6.91 6.93 6.76 6.45 6.52 6.64 6.46 6.52
0.07 0.06 0.06 0.06 0.06 0.07 0.11 0.13 0.16 0.22 0.35 0.51 0.56 1.17 1.56 1.63 1.65 1.58 1.59 1.71 1.71 1.71 1.95 2.30 2.60 2.89 3.03 3.15 3.42 3.67 4.11 4.81 5.35 5.67 6.30 6.96 7.21 7.40 7.44 7.22 6.91 6.70 6.45 6.29
0.06 0.06 0.07 0.08 0.08 0.08 0.11 0.11 0.16 0.20 0.28 0.46 0.50 0.97 1.72 1.87 1.98 1.80 1.72 1.74 1.63 1.58 1.76 2.13 2.33 2.59 2.92 3.04 3.15 3.40 3.98 4.66 5.40 6.03 6.54 7.15 7.63 7.85 7.77 7.31 6.81 6.26 5.92 5.49
0.06 0.06 0.06 0.07 0.06 0.06 0.10 0.14 0.24 0.29 0.40 0.67 0.63 0.94 1.83 2.13 2.27 2.30 1.97 1.76 1.60 1.51 1.60 1.80 2.05 2.28 2.61 2.72 2.96 3.26 3.70 4.44 5.16 5.76 6.35 6.87 7.26 7.36 7.02 6.47 5.93 5.57 5.17 4.64
0.12 0.09 0.07 0.06 0.08 0.09 0.13 0.28 0.60 0.80 0.90 0.90 0.69 1.02 1.83 2.03 1.86 1.89 1.94 1.98 1.75 1.47 1.49 1.74 1.93 2.22 2.42 2.51 2.77 3.14 3.67 4.32 4.73 5.20 5.72 6.05 6.26 6.38 6.35 6.01 5.53 5.15 4.67 4.20
0.24 0.22 0.10 0.06 0.09 0.13 0.14 0.28 0.74 1.03 1.05 1.04 1.05 1.52 2.15 1.98 1.62 1.59 1.72 1.83 1.67 1.60 1.64 1.87 2.02 2.25 2.47 2.52 2.69 3.03 3.49 3.92 4.13 4.34 4.76 5.11 5.25 5.29 5.15 4.94 4.55 4.23 3.89 3.57
0.28 0.28 0.13 0.07 0.08 0.10 0.19 0.25 0.39 0.57 0.67 1.04 1.52 2.05 2.63 2.45 1.84 1.59 1.64 1.66 1.66 1.68 1.72 1.92 2.07 2.22 2.39 2.46 2.62 2.78 3.03 3.23 3.44 3.61 3.83 4.05 4.09 4.00 3.84 3.66 3.41 3.20 3.00 2.70
0.29 0.29 0.20 0.13 0.13 0.14 0.20 0.29 0.40 0.66 1.01 1.39 1.71 2.42 3.24 3.07 2.36 1.90 1.80 1.75 1.70 1.70 1.73 1.89 1.98 2.08 2.16 2.15 2.24 2.32 2.53 2.69 2.90 2.99 3.04 2.97 2.99 2.93 2.75 2.55 2.47 2.31 2.13 2.03
0.37 0.40 0.29 0.21 0.23 0.26 0.26 0.33 0.49 0.65 0.76 1.33 1.96 2.82 3.05 3.11 2.80 2.40 1.96 1.72 1.66 1.64 1.65 1.71 1.77 1.82 1.82 1.78 1.80 1.90 2.05 2.28 2.43 2.46 2.57 2.51 2.41 2.23 2.10 1.93 1.87 1.81 1.73 1.71
0.38 0.50 0.48 0.32 0.28 0.23 0.26 0.37 0.55 0.86 0.87 1.06 1.70 2.85 2.88 3.15 3.02 2.67 2.28 1.98 1.85 1.76 1.63 1.56 1.54 1.56 1.57 1.58 1.58 1.66 1.74 1.87 1.95 2.03 2.06 2.07 2.01 1.92 1.79 1.68 1.63 1.65 1.65 1.62
0.37 0.61 0.87 0.88 0.74 0.42 0.33 0.34 0.43 0.57 0.81 1.19 1.76 2.84 2.93 2.91 2.85 2.79 2.56 2.24 2.02 1.87 1.68 1.64 1.59 1.52 1.56 1.68 1.69 1.60 1.64 1.70 1.71 1.77 1.76 1.78 1.89 1.85 1.74 1.71 1.72 1.71 1.66 1.63
0.31 0.61 1.04 1.41 1.33 0.77 0.54 0.42 0.44 0.61 1.04 1.24 1.56 2.26 2.55 2.63 2.75 2.93 2.89 2.42 1.99 1.86 1.76 1.81 1.86 1.80 1.70 1.72 1.86 1.79 1.71 1.68 1.75 1.80 1.75 1.63 1.62 1.67 1.71 1.68 1.64 1.59 1.53 1.55
0.39 0.68 0.62 0.59 0.62 0.61 0.57 0.53 0.55 0.65 0.75 1.14 1.55 2.03 2.44 2.61 2.61 2.69 2.57 2.36 1.99 1.85 1.93 1.91 1.85 1.85 1.75 1.70 1.84 1.91 1.81 1.70 1.95 2.01 1.91 1.76 1.59 1.61 1.65 1.63 1.57 1.50 1.44 1.35
0.41 0.67 0.63 0.59 0.49 0.56 0.62 0.65 0.72 0.81 0.88 1.10 1.62 2.32 2.62 2.70 2.68 2.72 2.62 2.45 2.35 2.22 2.11 2.07 2.02 2.03 1.98 1.87 1.92 2.05 1.98 1.83 1.96 1.99 2.04 2.05 1.93 1.89 1.80 1.64 1.56 1.57 1.56 1.49
0.44 0.71 0.94 0.93 0.59 0.83 1.27 0.99 0.94 1.09 1.16 1.40 2.03 2.37 2.31 2.41 2.59 2.78 2.83 2.71 2.60 2.56 2.41 2.36 2.33 2.28 2.28 2.24 2.19 2.17 2.06 1.92 1.93 2.04 2.11 2.09 2.02 1.96 1.90 1.67 1.56 1.62 1.63 1.59
0.46 0.76 1.01 1.08 1.19 1.92 1.77 1.06 1.03 1.25 1.45 1.65 1.92 2.01 2.05 2.08 2.21 2.34 2.47 2.57 2.56 2.47 2.40 2.42 2.51 2.43 2.40 2.30 2.23 2.14 2.04 2.03 2.06 2.11 2.11 2.04 1.89 1.87 1.82 1.74 1.70 1.66 1.59 1.56
0.34 0.68 1.11 1.29 1.65 1.92 1.77 1.14 1.18 1.62 2.18 1.84 1.83 1.69 1.55 1.53 1.79 2.27 2.36 2.36 2.49 2.51 2.45 2.43 2.40 2.32 2.29 2.24 2.18 2.10 2.04 2.04 2.02 2.00 1.92 1.84 1.74 1.76 1.68 1.67 1.63 1.59 1.51 1.46
0.37 0.56 1.09 1.39 1.95 2.34 2.15 1.18 0.99 1.51 2.71 2.08 1.80 1.70 1.60 1.70 2.19 2.38 2.23 2.24 2.20 2.19 2.22 2.13 1.96 1.86 2.01 2.14 2.14 2.07 1.99 1.96 1.93 1.72 1.53 1.45 1.50 1.58 1.46 1.38 1.34 1.33 1.35 1.34
0.89 0.99 1.23 1.50 2.02 2.28 1.40 0.88 1.08 2.27 2.82 2.18 1.80 1.64 1.65 1.94 2.14 1.89 1.71 1.81 1.85 1.82 1.74 1.65 1.59 1.65 1.79 1.86 1.88 1.90 1.82 1.82 1.71 1.54 1.44 1.40 1.35 1.33 1.30 1.29 1.29 1.22 1.18 1.24
1.16 1.33 1.43 1.62 2.18 2.34 1.17 0.99 1.63 2.03 1.68 1.63 1.56 1.46 1.44 1.44 1.36 1.37 1.41 1.39 1.39 1.41 1.39 1.32 1.39 1.50 1.58 1.55 1.54 1.62 1.64 1.59 1.49 1.46 1.41 1.44 1.34 1.16 1.20 1.37 1.33 1.28 1.31 1.31
1.22 1.37 1.50 1.71 2.08 1.78 1.17 1.14 1.28 1.33 1.30 1.22 1.21 1.13 1.07 1.08 0.95 1.02 1.15 1.10 1.07 1.08 1.13 1.18 1.19 1.28 1.42 1.45 1.47 1.52 1.48 1.41 1.40 1.47 1.46 1.38 1.28 1.33 1.33 1.37 1.36 1.29 1.26 1.18
1.24 1.04 1.23 1.42 1.51 1.31 1.15 1.10 1.08 0.99 0.97 0.90 0.95 1.03 0.99 0.99 1.02 1.04 1.02 0.99 0.92 0.94 0.98 1.07 1.12 1.13 1.24 1.27 1.30 1.38 1.33 1.33 1.45 1.55 1.51 1.38 1.27 1.24 1.28 1.31 1.27 1.17 1.08 1.04
1.19 1.14 1.27 1.42 1.40 1.34 1.29 1.06 0.99 0.92 0.84 0.80 0.86 0.94 0.99 0.99 1.03 1.02 0.98 0.97 0.96 0.98 1.02 1.08 1.15 1.14 1.09 1.07 1.12 1.12 1.14 1.26 1.47 1.44 1.30 1.19 1.05 1.01 1.06 1.07 1.04 1.00 0.90 0.85
0.94 1.12 1.32 1.42 1.26 1.32 1.36 1.07 0.92 0.93 0.89 0.87 0.87 0.96 1.08 1.10 1.13 1.09 1.02 1.00 1.00 1.00 0.99 1.08 1.07 1.01 1.03 1.07 1.08 1.03 0.98 1.09 1.31 1.31 1.10 0.95 0.87 0.83 0.76 0.75 0.77 0.73 0.70 0.70